This demonstration page uses our WeatherBlox Daily Observations layout. Learn more.

Left ArrowRight Arrow

Hourly Observations for April 6, 2015

Temp ( °F °C ) Dew Point ( °F °C ) Humidity (%) Winds ( mph kmh ) Pressure ( in mb ) Visibility ( mi km ) Precip ( " mm )
12:35 am 00:35 Cloudy with Drizzle 51 10.6 50 10 96 96 SSE 16 26 29.83 1010 3 4 0.00 0.03
12:53 am 00:53 Cloudy with Drizzle 52 11.1 50 10 93 93 SSE 14 22 29.83 1010 3 4 0.00 0.03
1:12 am 01:12 Cloudy with Drizzle 52 11 50 10 94 94 SSE 15 24 29.83 1010 3 5 0.00 0.00
1:26 am 01:26 Cloudy with Drizzle 52 11 50 10 94 94 SSE 17 28 29.83 1010 3 4 0.00 0.00
1:53 am 01:53 Cloudy with Drizzle 52 11.1 50 10 93 93 SSE 17 28 29.82 1010 3 4 0.01 0.25
2:53 am 02:53 Cloudy with Drizzle 52 11.1 51 10.6 97 97 SSE 14 22 29.80 1009 3 4 0.00 0.03
3:53 am 03:53 Cloudy with Drizzle 53 11.7 51 10.6 93 93 SSE 17 28 29.78 1008 3 5 0.00 0.03
4:42 am 04:42 Cloudy with Drizzle 54 12 52 11 94 94 SSE 14 22 29.77 1008 3 4 0.00 0.00
4:53 am 04:53 Cloudy with Drizzle 53 11.7 51 10.6 93 93 SSE 16 26 29.77 1008 2 3 0.00 0.03
5:53 am 05:53 Cloudy with Drizzle 53 11.7 52 11.1 96 96 SSE 16 26 29.76 1008 4 6 0.01 0.25
6:42 am 06:42 Cloudy with Drizzle 54 12 52 11 94 94 SSE 18 30 29.77 1008 2 2 0.00 0.00
6:53 am 06:53 Cloudy with Drizzle 53 11.7 52 11.1 96 96 SSE 15 24 29.75 1008 2 2 0.00 0.03
7:53 am 07:53 Cloudy with Drizzle 54 12.2 52 11.1 93 93 S 16 26 29.77 1008 2 2 0.00 0.03
8:36 am 08:36 Cloudy with Mist and Fog 55 13 54 12 94 94 S 18 30 29.77 1008 4 6 0.00 0.00
8:53 am 08:53 Cloudy with Mist and Fog 55 12.8 53 11.7 93 93 S 16 26 29.77 1008 4 6 0.00 0.03
9:14 am 09:14 Cloudy with Mist and Fog 56 13.3 54 12.2 93 93 S 15 24 29.77 1008 4 6 0.00 0.00
9:53 am 09:53 Cloudy with Mist and Fog 57 13.9 55 12.8 93 93 S 18 30 29.76 1008 6 10 0.00 0.00
10:41 am 10:41 Cloudy 59 15 56 13.3 90 90 S 15 24 29.74 1007 8 13 0.00 0.00
10:53 am 10:53 Cloudy 59 15 57 13.9 93 93 S 20 31 29.75 1007 8 13 0.00 0.00
11:40 am 11:40 Cloudy 63 17 57 14 83 83 S 21 33 29.74 1007 10 16 0.00 0.00
11:53 am 11:53 Mostly Cloudy 64 17.8 58 14.4 81 81 S 18 30 29.74 1007 10 16 0.00 0.00
12:13 pm 12:13 Mostly Cloudy 66 18.9 58 14.4 75 75 S 18 30 29.71 1006 10 16 0.00 0.00
12:53 pm 12:53 Mostly Cloudy 71 21.7 58 14.4 63 63 S 18 30 29.71 1006 10 16 0.00 0.00
1:00 pm 13:00 Mostly Cloudy 70 21 57 14 64 64 S 21 33 29.68 1005 10 16 0.00 0.00
1:53 pm 13:53 Mostly Cloudy 74 23.3 58 14.4 57 57 S 21 33 29.70 1006 10 16 0.00 0.00
2:53 pm 14:53 Mostly Cloudy 76 24.4 58 14.4 54 54 S 20 31 29.68 1005 10 16 0.00 0.00
3:53 pm 15:53 Partly Cloudy 81 27.2 59 15 47 47 S 23 37 29.65 1004 10 16 0.00 0.00
4:53 pm 16:53 Mostly Cloudy 84 28.9 58 14.4 41 41 S 18 30 29.62 1003 10 16 0.00 0.00
5:53 pm 17:53 Partly Cloudy 85 29.4 57 13.9 39 39 S 21 33 29.61 1003 10 16 0.00 0.00
6:53 pm 18:53 Partly Cloudy 82 27.8 58 14.4 44 44 S 25 41 29.62 1003 10 16 0.00 0.00
7:53 pm 19:53 Mostly Sunny 78 25.6 59 15 52 52 S 20 31 29.64 1004 10 16 0.00 0.00
8:53 pm 20:53 Mostly Clear 76 24.4 58 14.4 54 54 S 18 30 29.65 1004 10 16 0.00 0.00
9:53 pm 21:53 Mostly Clear 72 22.2 60 15.6 66 66 SSE 14 22 29.67 1005 10 16 0.00 0.00
10:53 pm 22:53 Mostly Clear 70 21.1 61 16.1 73 73 SSE 14 22 29.69 1005 10 16 0.00 0.00
11:53 pm 23:53 Mostly Clear 70 21.1 62 16.7 76 76 SSE 16 26 29.68 1005 10 16 0.00 0.00

Powered by AerisWeather